Terminal Aerodrome Forecast
Issued by NWS Sterling, VA

Current Version | Previous Version | Graphics & Text | Print | Product List | Glossary On
Versions: 1 2 3 4 5 6 7 8 9 10 11 12 13 14 15 16 17 18 19 20 21 22 23 24
000
FTUS41 KLWX 170900 AAA
TAFIAD
TAF AMD
KIAD 170900Z 1709/1812 VRB03KT P6SM OVC080
     FM171500 29007KT P6SM SCT040 BKN110
     FM180200 VRB03KT P6SM SCT040 BKN130=

USA.gov is the U.S. government's official web portal to all federal, state and local government web resources and services.